Theta_e
332 332 333 335 329 325 336 338 336 336 336 336 337 338 338 339 340 340 338 336 338 340 341 341 341 342 342 341 341 341 340 340 340 341 341 341 342 342 342 342 341 336 325 319 319 317 321 330 333 333 333 332 330 334 336 332 327 323 323 325 330 335 337 339 339 337 330 319 317 323 329 331 332 333 332 330 324 323 328 330 330 331 331 331 330
333 332 334 335 329 325 336 340 337 338 336 337 338 338 338 339 340 339 336 336 338 340 341 341 341 342 340 338 337 336 334 332 335 339 339 338 340 341 341 341 340 337 328 323 326 325 324 329 332 329 326 325 328 333 333 328 325 324 325 329 331 333 334 336 339 340 338 328 314 310 315 320 322 320 317 319 323 327 329 330 333 333 332 331 331
330 333 334 334 329 326 336 340 339 339 337 338 338 338 339 339 340 338 335 336 338 341 341 340 341 339 337 336 334 332 331 330 332 337 338 337 339 341 341 341 338 336 334 332 333 332 329 329 328 325 322 323 328 331 328 325 324 325 328 330 330 331 331 331 334 337 339 337 327 314 309 313 315 316 316 316 324 332 332 331 333 332 330 331 330
329 334 334 335 330 326 336 341 341 341 339 339 338 338 339 339 340 337 335 336 339 341 341 340 339 337 338 337 335 334 335 333 331 334 337 337 338 339 340 339 336 336 336 335 335 334 332 330 328 325 323 324 328 328 323 321 323 325 327 327 328 327 328 328 330 332 335 338 337 327 316 313 318 327 328 321 323 331 334 333 331 328 327 329 329
329 335 335 337 331 328 338 342 343 344 342 340 339 340 340 340 340 336 335 336 339 340 340 340 338 337 338 337 336 337 336 334 331 331 333 335 335 336 337 336 335 336 336 334 334 333 332 330 327 326 327 327 328 324 320 320 323 324 325 325 326 327 328 330 331 332 333 336 338 335 323 314 320 331 334 327 323 325 330 332 329 323 323 328 328
330 334 335 335 331 330 337 342 344 345 344 342 341 340 340 340 339 336 335 336 338 340 340 340 338 337 336 336 338 339 337 335 335 335 335 334 335 336 337 336 335 336 335 334 334 333 333 330 325 324 326 328 327 322 319 320 322 323 324 325 328 331 332 334 334 334 335 336 337 334 324 318 321 330 334 329 322 320 323 327 326 321 321 325 328
329 332 334 334 332 328 333 342 345 345 344 344 342 340 341 340 338 335 335 337 339 340 340 339 339 338 336 336 338 340 339 338 336 336 336 333 332 334 336 336 334 335 335 335 334 334 333 330 325 322 321 321 320 317 315 316 320 323 326 330 332 334 334 334 334 334 334 334 332 326 321 320 321 325 329 326 322 322 322 322 323 324 323 323 328
331 332 333 334 331 326 333 341 344 344 344 345 343 341 341 339 336 335 336 338 341 342 340 341 340 338 337 336 338 339 338 337 333 331 334 334 332 331 333 336 334 335 337 336 336 335 333 330 328 324 322 319 316 313 312 316 322 327 330 332 333 333 333 334 334 332 331 330 326 322 321 322 322 323 324 324 324 324 324 324 324 326 327 325 327
334 333 332 333 330 327 334 341 343 343 344 344 344 343 340 337 336 336 337 339 341 342 341 341 340 338 337 336 338 337 336 335 331 327 333 337 333 329 331 334 333 336 336 335 335 334 331 330 329 328 327 324 320 317 317 322 327 331 332 333 333 332 333 335 335 333 330 327 324 323 324 325 326 326 326 326 327 327 327 327 327 328 328 327 327
335 335 333 333 330 326 332 339 342 344 343 343 343 342 339 336 336 337 338 340 342 341 341 341 340 338 337 336 335 335 334 333 331 327 332 336 329 323 326 328 332 336 334 333 333 331 330 330 330 330 330 328 324 322 324 327 331 333 333 333 333 332 333 334 335 334 330 328 326 326 327 328 328 328 328 329 329 329 329 329 329 329 329 329 329
336 336 335 333 331 325 328 337 340 342 343 342 342 340 340 339 337 337 338 341 342 341 341 340 340 338 336 335 333 333 334 332 329 325 330 337 331 322 321 325 333 336 333 334 333 331 331 330 330 330 330 329 326 325 327 329 332 333 333 333 331 332 332 331 333 334 332 329 328 328 329 329 329 329 330 330 330 330 330 330 330 330 330 330 330
338 336 335 334 332 326 329 336 339 342 343 342 342 340 341 341 338 338 340 341 341 341 341 340 339 337 335 333 331 333 333 330 327 324 329 334 331 326 323 328 334 334 332 332 331 331 331 330 330 330 329 329 329 328 328 329 331 331 331 330 328 329 329 330 333 334 332 331 329 329 330 330 330 330 330 330 331 331 330 330 330 330 330 331 331
338 337 336 336 333 329 332 337 340 341 342 342 341 341 342 342 340 340 341 341 341 341 340 339 338 335 333 331 330 330 328 327 325 325 328 330 330 330 328 330 332 330 330 330 331 331 331 330 330 330 330 330 329 328 328 328 329 329 328 326 325 326 326 329 333 333 333 332 330 330 331 331 330 330 331 331 331 331 331 331 331 331 331 332 332
336 337 337 337 335 335 335 338 341 342 342 341 341 342 342 342 341 341 341 341 341 341 339 338 336 334 333 331 329 326 322 322 324 323 325 327 330 331 329 330 330 328 329 330 330 330 330 331 330 331 330 330 329 328 328 327 327 326 325 324 323 324 325 329 334 334 333 333 331 331 332 331 330 331 331 331 331 331 331 331 331 331 331 332 333
333 336 338 337 337 340 340 340 342 342 342 341 342 341 341 341 341 341 340 341 341 340 338 337 335 333 333 332 330 327 320 318 320 320 320 323 327 328 328 329 328 328 329 330 330 330 330 330 330 330 330 330 329 328 327 326 325 323 322 321 320 321 324 331 335 334 333 334 333 332 332 330 330 330 331 331 331 331 331 331 331 331 331 331 333
333 335 337 338 339 342 342 341 342 341 342 342 342 341 340 341 341 341 340 341 341 339 337 336 334 333 334 333 331 328 321 316 316 317 317 320 324 325 325 326 327 328 328 329 330 330 330 330 330 329 329 329 328 327 326 324 323 321 321 320 319 320 325 333 335 334 334 334 333 332 331 331 331 330 331 332 332 332 331 332 333 333 332 333 334
334 335 337 338 340 342 342 342 341 341 341 341 341 341 341 341 342 340 340 341 341 339 337 335 334 334 335 334 332 329 323 318 315 315 316 317 322 322 322 325 326 328 329 329 330 329 330 329 329 329 328 328 327 326 324 324 323 323 323 321 320 321 329 335 335 333 333 334 333 332 331 331 331 331 331 331 332 332 332 332 333 333 334 335 336
336 335 336 338 339 341 341 341 341 341 341 341 341 340 340 341 341 340 341 341 340 339 336 335 335 336 335 335 335 332 326 320 316 315 315 315 321 321 320 325 327 328 329 329 329 329 329 328 328 328 327 327 326 324 323 326 326 327 327 325 323 325 332 336 334 334 334 335 333 332 332 332 332 332 332 331 332 332 332 332 332 334 336 337 338
338 336 337 337 338 340 340 341 341 342 341 341 341 340 341 341 341 341 341 341 340 338 336 336 336 337 337 337 336 334 329 322 317 316 314 314 320 322 321 324 327 328 329 329 329 329 328 328 328 327 326 325 323 321 322 327 329 330 330 329 328 328 333 335 335 335 335 334 333 333 334 333 333 333 333 333 333 332 332 333 334 336 337 337 337
340 338 339 338 338 340 340 341 341 341 341 341 341 341 341 340 341 341 341 341 340 338 337 338 338 338 338 337 335 332 327 320 317 316 314 313 315 322 323 324 326 328 328 328 328 328 328 327 327 326 324 322 322 322 325 329 331 332 332 332 331 329 333 336 335 334 334 334 335 335 335 334 334 334 334 335 335 335 335 336 337 337 337 337 336
341 340 340 340 341 340 339 340 341 341 341 342 341 342 341 341 341 341 341 341 341 339 337 338 339 338 337 337 333 327 319 315 315 314 313 314 312 316 322 325 327 327 327 327 327 327 326 325 324 322 321 320 322 327 329 331 332 333 334 333 332 330 333 336 335 335 335 336 335 335 335 335 335 336 336 336 337 337 337 337 337 336 336 336 336
342 341 341 341 342 340 339 340 340 341 341 341 341 342 341 341 342 342 342 341 342 341 337 337 338 337 336 334 328 318 313 311 310 310 312 314 314 312 315 318 322 324 325 325 325 324 322 321 321 320 320 321 324 328 331 333 333 334 335 334 333 331 334 337 336 336 336 335 335 335 335 336 336 336 336 336 337 337 337 337 336 336 336 336 336
341 342 342 342 341 339 339 340 340 341 341 341 341 342 341 341 342 342 342 341 342 341 337 336 336 336 333 325 319 316 318 315 309 309 311 313 315 314 313 313 314 316 317 319 319 319 319 320 321 323 326 327 328 331 334 334 334 335 335 335 335 333 334 337 336 336 336 334 335 335 335 336 336 336 336 336 336 337 337 336 336 335 335 335 335
341 341 341 341 341 339 340 340 340 341 341 341 341 341 342 341 342 342 341 341 341 339 336 336 336 334 325 318 322 328 331 328 321 317 313 311 314 315 315 314 312 313 313 315 316 318 321 323 325 327 332 334 334 335 335 334 334 335 335 335 336 334 336 337 336 335 334 334 335 335 335 336 336 336 336 336 336 336 335 336 335 335 335 335 334
341 341 341 341 340 339 340 340 340 341 340 341 341 341 342 341 341 341 341 341 340 338 336 336 333 327 321 322 331 335 335 335 332 326 318 312 313 315 315 314 314 314 315 317 319 323 328 331 331 332 334 335 336 336 336 335 335 335 335 335 336 336 337 337 335 334 333 333 333 333 333 334 334 335 335 335 335 335 335 335 334 334 334 334 334
341 341 341 341 339 337 338 339 339 340 340 340 341 342 342 341 340 341 341 341 339 337 337 334 326 323 327 332 335 336 335 335 333 329 322 315 311 314 314 314 314 315 318 320 323 329 334 335 335 335 334 335 336 335 335 335 335 336 336 336 337 337 336 335 334 332 331 330 330 330 329 329 330 330 331 331 331 332 332 332 333 333 333 333 332
341 341 341 341 339 337 337 338 339 340 340 340 341 342 341 340 340 341 341 340 338 337 336 331 326 327 332 335 335 336 335 334 333 328 323 317 311 312 314 313 315 319 323 325 326 330 333 335 337 336 335 335 335 334 334 334 334 334 335 337 336 336 335 333 332 331 330 329 328 328 327 327 326 326 326 325 324 325 325 325 327 328 330 331 329
341 341 341 341 339 337 337 338 339 339 340 340 340 341 341 341 341 341 340 339 337 335 333 332 332 332 333 335 336 335 335 333 334 332 327 321 312 312 316 317 319 322 324 326 327 329 330 333 337 337 335 335 335 335 334 333 332 332 335 336 336 335 334 332 331 330 329 328 327 326 326 325 324 323 322 320 318 316 316 318 320 322 325 327 325
341 341 341 341 340 338 339 339 338 338 339 340 340 340 341 341 340 340 339 338 337 334 334 335 334 334 333 335 336 336 336 334 334 337 334 329 321 316 318 320 323 323 325 328 329 332 333 334 337 338 336 334 333 333 332 331 332 334 336 336 335 334 333 332 331 330 329 327 326 325 324 322 320 318 316 316 316 314 314 316 319 320 321 322 319
341 341 341 341 340 339 340 339 338 339 340 339 339 340 340 340 340 339 339 338 336 334 336 336 335 335 332 333 336 335 336 336 335 337 336 335 332 326 321 320 324 326 330 332 333 335 336 336 338 337 335 334 332 331 332 333 334 336 336 336 335 334 333 332 331 329 327 326 325 323 320 318 317 315 312 315 318 317 317 319 319 319 320 319 318
341 341 341 341 340 339 341 340 339 340 341 341 340 340 340 339 339 339 339 337 336 336 337 338 338 336 333 332 333 332 335 337 338 338 337 337 336 333 327 324 326 328 332 335 335 336 336 337 338 336 334 333 332 332 334 335 335 336 335 335 334 334 334 332 330 326 325 325 323 320 318 316 316 314 311 314 318 319 319 320 319 319 319 319 319
341 341 341 341 340 340 341 341 340 341 343 343 341 341 339 340 341 340 340 337 336 338 338 339 339 337 335 332 331 331 332 336 339 339 337 337 337 336 331 327 326 328 333 335 335 336 336 337 338 336 334 332 331 333 334 334 335 335 335 334 333 332 331 329 325 322 322 322 320 317 315 315 316 316 314 315 318 318 319 319 319 319 319 318 318
341 342 341 340 340 340 340 341 341 342 343 344 343 341 339 341 342 342 341 338 337 339 339 340 338 336 335 332 331 331 333 336 339 339 337 337 337 336 333 329 329 331 335 336 335 336 337 337 337 336 333 331 331 333 334 334 335 335 333 331 329 327 325 323 322 320 320 319 317 314 311 311 314 315 316 318 318 317 317 318 318 318 318 318 317
341 341 341 341 341 340 340 341 341 342 343 344 344 342 340 342 344 343 342 340 339 340 340 340 338 335 334 331 330 333 336 338 339 339 338 337 337 337 335 333 334 335 336 336 337 338 338 337 337 335 333 332 332 334 333 333 332 331 329 326 324 322 321 320 319 318 317 315 313 309 307 309 311 312 315 317 316 316 316 316 317 317 317 317 317
342 341 341 341 340 340 340 341 341 343 343 344 344 343 341 343 344 343 342 341 340 340 340 339 337 335 335 331 331 336 338 339 339 339 338 337 336 337 336 336 336 336 336 336 338 337 337 337 335 333 331 332 332 332 332 331 329 327 325 323 321 320 320 319 318 317 316 314 311 308 306 308 309 309 311 313 314 314 314 315 315 316 317 316 315
342 341 341 341 340 340 340 340 340 342 343 344 344 343 343 344 343 343 343 342 341 340 340 339 337 336 336 332 333 339 339 339 340 338 339 338 336 336 336 337 336 336 337 337 338 337 337 336 333 330 330 332 331 330 330 329 327 325 323 322 321 320 319 317 317 316 314 312 311 310 308 306 306 306 306 307 309 311 312 313 314 314 315 315 314
342 341 341 340 340 340 340 340 341 341 342 343 344 344 343 343 344 343 343 342 340 340 339 338 338 337 337 334 334 339 339 339 339 338 339 338 336 335 335 337 336 336 337 338 338 337 336 334 331 328 329 332 331 329 328 326 325 323 321 320 319 318 317 315 315 314 313 312 311 311 310 307 306 305 304 305 305 306 308 309 312 313 313 313 313
342 341 341 341 341 341 340 340 341 342 342 342 343 344 343 343 343 343 342 342 340 339 338 338 338 337 338 336 336 338 339 339 339 338 338 337 336 335 336 337 336 337 338 338 338 337 335 333 330 328 328 331 330 328 326 324 323 321 319 318 317 316 314 313 313 312 312 312 311 311 310 309 308 305 304 306 306 306 305 305 308 310 312 311 311
342 342 342 342 342 342 342 341 342 343 342 342 343 343 343 343 343 343 342 341 340 339 338 338 338 338 339 338 337 338 340 339 338 338 337 337 336 335 336 337 336 338 339 338 337 336 336 334 330 328 329 331 330 327 325 322 319 317 315 314 312 312 311 311 311 311 311 311 311 310 309 310 309 306 305 306 307 306 305 305 305 307 308 309 309
342 342 342 342 342 343 342 342 342 343 342 342 343 343 343 343 342 342 341 340 339 339 339 339 338 338 339 339 339 339 340 338 338 338 336 337 336 335 336 336 337 338 338 337 336 336 335 335 332 328 329 330 328 326 325 321 315 312 312 311 311 310 309 310 311 311 310 309 310 309 307 307 306 304 304 305 306 306 306 305 305 305 306 307 306
342 342 343 342 342 343 342 343 342 342 342 342 343 343 343 342 342 341 341 340 339 339 339 338 338 338 338 339 340 339 339 338 338 337 336 337 336 335 337 337 338 338 338 337 336 335 333 333 332 328 328 330 327 324 325 323 316 311 312 312 312 311 311 311 310 310 309 306 305 305 304 304 304 303 303 304 304 305 305 305 306 306 306 306 304
342 342 343 342 342 342 342 343 342 342 342 342 342 343 342 342 342 341 340 339 339 339 338 338 338 338 339 340 339 338 338 338 338 336 337 338 336 336 337 337 338 338 337 336 335 335 333 330 330 329 327 329 327 323 323 325 318 312 311 312 313 313 311 311 310 310 308 304 302 303 304 304 303 304 303 304 304 304 305 305 306 306 305 304 303
342 343 343 342 342 342 342 342 342 342 342 341 341 342 342 341 341 341 340 340 339 338 338 338 339 339 339 339 338 338 338 338 337 336 337 337 336 336 338 338 338 337 336 335 334 334 334 330 329 330 328 327 327 324 324 325 320 314 314 317 318 317 314 311 310 310 308 304 303 304 304 304 304 304 304 304 304 304 305 306 305 304 302 302 303
343 343 343 343 343 342 342 342 341 341 341 341 340 341 341 341 341 340 340 340 339 338 338 338 338 338 338 338 337 338 338 338 336 336 337 337 337 337 338 338 337 336 336 335 334 332 333 332 331 331 328 324 323 323 326 327 324 320 323 325 321 321 321 315 311 311 309 307 305 305 305 305 305 304 304 304 304 304 304 305 304 302 301 301 304
343 343 343 342 343 342 342 342 342 341 341 340 340 340 341 341 341 340 340 340 338 338 337 337 337 337 337 337 337 337 337 337 336 337 337 337 337 337 337 337 336 335 335 334 333 332 331 331 332 331 328 324 319 320 325 327 327 325 328 328 326 328 326 316 312 311 310 310 308 307 306 305 305 304 304 304 305 305 303 304 303 302 302 302 304
343 343 343 342 342 342 342 342 341 341 340 340 339 340 341 341 341 340 340 339 338 337 337 337 337 337 337 337 337 337 337 336 336 337 337 336 337 336 335 336 335 334 333 333 332 331 329 329 331 331 329 327 319 318 323 326 327 327 328 328 329 332 323 314 315 314 310 309 308 307 306 305 306 305 305 305 304 303 303 303 302 302 302 303 304
343 343 342 342 342 342 341 341 341 341 340 340 340 340 341 341 340 340 340 339 337 337 337 337 338 337 337 337 337 337 337 336 336 336 336 336 335 335 334 334 334 333 332 331 330 328 327 327 330 330 329 327 318 316 321 324 326 326 327 327 327 329 319 314 317 314 311 310 307 307 307 306 306 306 306 305 302 301 302 302 301 301 302 303 304
342 342 342 342 342 341 340 341 341 341 340 340 340 340 341 341 340 340 339 338 338 337 337 338 338 337 337 337 337 337 337 336 336 336 335 335 334 334 333 332 332 331 330 330 329 326 325 325 328 327 324 321 314 313 319 322 324 323 323 325 326 326 320 315 313 309 313 315 310 309 309 308 307 307 307 304 301 301 301 300 301 302 302 304 304
342 342 342 342 341 340 340 340 341 340 340 341 341 341 341 341 340 339 338 338 338 338 338 338 337 337 336 336 336 336 336 335 335 335 334 334 334 332 332 331 331 330 329 329 327 326 325 324 326 325 321 316 311 312 317 318 320 320 321 323 323 321 318 316 313 309 312 316 314 311 310 310 308 308 307 303 301 302 301 300 301 301 302 303 303
342 341 342 341 340 339 338 339 340 340 340 341 341 341 341 341 339 338 338 337 338 338 338 338 337 337 336 336 336 336 335 335 334 334 334 333 333 331 331 330 330 329 328 328 327 326 324 322 324 324 322 318 312 312 315 316 317 318 320 321 320 318 316 316 314 313 312 311 312 311 310 310 309 307 305 302 302 302 302 301 301 301 302 302 301
341 340 341 340 339 339 338 339 340 340 340 341 341 341 341 340 339 338 338 337 338 338 337 337 337 337 336 335 336 335 335 335 334 333 332 331 331 330 329 329 329 328 327 326 325 324 323 321 322 322 321 319 315 312 314 315 316 316 317 319 318 316 316 315 315 314 312 310 312 311 310 310 307 303 303 303 303 303 303 302 301 301 301 300 300
Wind_Speed
27 26 24 22 20 21 22 22 23 22 22 20 20 18 18 17 16 16 16 17 18 19 18 17 17 16 15 16 16 16 16 16 15 15 15 14 13 13 11 10 10 10 11 12 14 15 15 15 14 15 17 18 19 18 18 19 19 18 17 16 15 14 15 15 15 16 17 17 14 12 12 12 12 11 11 9 10 12 13 13 14 16 15 13 13
31 28 26 23 21 22 23 22 23 22 22 21 20 19 18 17 16 16 17 18 19 19 18 17 15 15 15 15 15 15 14 14 14 15 14 13 12 12 10 9 9 10 11 13 15 17 18 17 17 17 18 19 19 19 19 19 18 17 16 15 14 14 14 14 14 14 15 17 16 14 14 13 12 11 11 10 11 12 13 14 14 14 13 13 13
33 30 27 24 22 22 24 23 23 22 22 21 20 19 18 17 17 17 18 19 20 18 17 16 14 14 14 14 14 14 14 14 14 14 13 13 12 11 10 9 8 10 11 13 14 15 17 18 18 19 19 18 18 18 19 18 17 16 15 14 13 13 12 13 13 13 12 14 15 14 14 15 14 13 13 13 13 13 13 14 14 13 12 12 12
34 32 28 25 22 23 24 23 23 22 22 21 21 20 19 18 17 17 19 19 19 18 16 15 14 14 14 13 13 13 13 12 13 13 12 12 11 11 10 8 8 9 10 12 13 14 15 17 17 18 18 17 17 18 18 17 17 16 15 14 12 12 11 11 11 10 10 10 12 13 12 13 14 13 13 14 14 14 12 12 12 13 12 12 11
34 32 29 26 23 24 24 23 23 22 22 21 21 20 19 18 18 18 19 19 19 17 16 14 14 14 13 12 13 12 12 11 12 12 12 11 11 10 9 8 7 9 10 11 12 13 14 15 16 16 16 16 16 16 17 17 17 16 14 13 12 12 11 11 10 8 7 6 8 10 9 10 12 11 11 12 13 13 12 11 11 12 12 12 12
35 33 30 28 25 25 25 25 23 22 22 21 21 20 20 19 19 19 19 19 18 17 16 15 14 13 12 12 12 12 12 12 12 12 12 11 10 10 9 8 8 9 10 11 11 12 13 13 15 15 15 14 14 15 16 16 16 14 13 13 12 12 12 12 11 8 6 6 6 9 8 9 12 11 10 11 12 13 12 11 11 12 12 12 12
35 35 31 29 26 25 26 25 23 23 22 21 21 20 20 20 20 20 20 20 18 17 16 15 14 13 13 12 12 13 12 12 12 11 11 10 10 9 9 8 8 9 9 10 11 11 11 12 13 13 13 13 13 13 14 14 14 13 12 12 12 13 14 15 12 9 9 10 9 9 9 10 13 12 11 11 13 13 13 12 12 12 12 12 12
36 35 32 30 27 26 26 25 23 22 22 21 21 21 21 21 21 21 20 20 19 17 16 15 13 13 13 12 12 12 11 10 10 10 10 10 10 10 10 9 8 9 9 9 9 10 10 12 12 13 13 12 12 13 13 14 13 12 12 11 12 13 14 15 12 10 12 12 11 11 10 12 13 13 12 12 13 13 12 13 13 13 12 12 12
36 35 33 30 27 27 27 26 24 22 22 21 21 21 22 22 21 21 21 21 19 17 15 14 13 13 12 11 12 10 9 9 8 10 11 11 10 11 12 10 9 9 8 8 9 10 11 12 12 12 13 13 13 13 13 13 12 11 10 11 11 13 13 15 13 9 11 12 12 12 11 12 12 12 12 11 12 11 12 12 13 13 12 12 12
36 34 33 30 28 28 27 26 24 23 22 21 22 22 23 23 22 21 22 21 19 17 15 14 13 13 12 11 10 9 8 8 8 10 12 11 11 13 13 11 10 8 8 8 9 10 11 11 12 12 12 13 13 13 12 11 10 9 9 10 11 12 13 16 14 9 9 10 12 12 11 12 12 12 11 10 11 11 12 12 13 13 12 12 11
35 34 33 30 29 27 27 27 25 24 22 22 22 23 23 22 22 22 22 21 19 17 16 14 13 12 11 10 9 9 8 7 8 10 13 12 12 13 14 13 11 8 8 7 8 10 10 11 11 11 11 12 12 11 10 9 8 8 8 9 10 12 13 16 16 9 7 9 11 11 11 11 11 10 10 10 11 11 11 11 12 12 12 11 12
34 34 32 30 29 27 27 27 25 24 23 23 22 23 22 21 23 22 22 20 19 17 16 14 13 11 11 9 9 9 8 6 7 10 12 13 13 13 13 13 11 9 9 8 9 9 10 10 10 10 11 11 11 10 9 8 8 8 8 9 11 11 12 15 17 10 6 7 9 11 11 10 10 10 9 10 10 11 11 10 11 11 11 11 12
33 33 32 30 28 27 27 26 26 25 23 23 23 22 21 21 23 22 21 20 18 17 16 14 12 11 10 9 9 9 8 7 8 10 12 14 14 13 13 13 11 11 11 9 9 9 9 10 10 10 10 10 9 9 8 8 8 8 8 9 11 11 12 15 17 12 6 7 7 9 9 10 10 10 9 9 9 10 10 9 10 10 11 11 12
35 33 31 30 28 26 27 27 26 25 24 24 23 22 21 22 22 21 21 20 18 17 15 14 12 11 10 10 9 8 8 7 7 8 12 13 13 14 14 13 12 12 11 10 9 8 8 9 9 9 9 9 9 8 8 7 7 7 7 8 10 11 12 14 16 12 7 8 6 8 9 10 10 9 9 8 9 9 8 9 9 10 10 11 12
35 34 31 29 27 26 26 27 26 25 24 24 23 23 23 23 22 21 21 19 18 16 15 14 12 11 10 10 8 8 7 8 7 7 10 11 13 15 14 13 13 13 12 10 9 8 8 8 8 8 8 8 7 7 6 6 6 6 7 7 9 10 12 15 15 11 7 8 6 8 9 9 9 9 8 8 7 7 7 8 9 9 10 9 10
34 34 32 29 28 26 25 25 25 25 24 24 24 23 23 23 21 21 20 19 18 16 15 13 12 11 10 9 8 7 6 7 7 7 9 10 13 14 14 14 14 14 12 11 9 8 7 6 7 6 7 6 6 5 5 6 6 7 7 8 8 10 13 16 14 8 7 8 7 8 8 8 8 8 7 7 6 6 7 7 8 8 9 9 8
32 33 32 29 28 27 26 25 24 23 24 24 23 23 23 22 21 21 20 19 17 16 15 14 12 11 10 9 8 6 5 6 7 7 8 10 12 13 14 14 14 14 12 11 9 7 6 5 6 5 5 5 4 5 5 6 7 8 9 8 8 11 14 14 12 8 9 9 7 7 8 8 8 7 7 7 6 6 6 7 7 7 8 9 8
30 31 31 30 29 27 26 25 24 24 24 23 22 22 22 22 21 20 20 19 17 16 15 14 12 11 10 9 9 6 5 5 6 7 7 9 11 13 14 15 14 13 12 10 8 7 5 4 4 3 3 3 4 5 5 6 7 9 9 8 9 11 14 12 11 10 10 8 7 6 7 7 7 7 7 6 6 6 7 8 8 8 8 8 8
30 31 31 31 30 28 27 25 25 25 25 24 23 22 21 22 21 20 19 18 17 16 15 14 13 11 10 10 9 7 5 4 6 7 7 8 10 12 14 15 14 13 11 10 8 6 4 3 2 1 2 3 3 4 4 5 6 7 7 9 10 11 13 11 10 10 8 7 6 6 7 7 7 7 6 7 8 8 8 9 9 8 9 9 9
30 31 31 31 30 29 28 26 26 25 25 24 23 22 21 21 21 19 19 18 17 16 15 14 13 12 10 9 8 7 6 4 5 7 7 8 10 11 12 13 13 12 11 9 7 5 3 2 1 1 2 3 4 4 4 4 5 6 6 8 8 9 11 9 7 7 6 6 6 7 8 8 8 8 8 8 9 9 9 9 9 9 9 9 9
28 30 30 30 29 29 29 28 27 25 25 24 23 23 21 21 20 19 18 18 17 16 15 14 13 11 10 9 7 6 5 5 6 6 8 8 9 10 11 11 11 10 9 7 6 4 3 2 2 1 2 3 4 4 4 3 4 4 5 6 6 9 10 6 5 5 6 7 8 9 10 9 10 9 9 9 9 9 10 10 9 9 9 10 10
28 28 28 30 29 29 30 28 27 26 25 24 24 23 22 23 21 20 19 18 17 15 15 15 13 10 9 9 7 6 5 6 6 6 7 8 8 9 9 10 10 9 8 7 5 4 3 2 1 1 2 3 4 4 3 2 2 3 4 4 5 7 8 4 6 5 7 9 10 11 10 11 11 10 10 10 10 11 11 11 10 11 11 11 11
28 28 28 30 30 30 29 28 27 26 26 25 25 24 24 24 23 21 20 19 17 16 16 15 12 10 9 8 7 7 7 6 6 6 6 8 8 7 7 8 8 8 7 6 5 4 2 0 2 3 4 4 3 3 2 0 1 2 1 5 5 6 5 6 7 6 9 11 12 11 11 11 11 11 12 13 13 13 13 12 12 13 13 13 14
30 30 30 30 29 30 29 28 27 27 27 26 26 25 25 25 24 22 21 20 18 16 16 14 12 10 9 9 10 9 8 7 6 6 6 7 8 7 7 6 7 7 6 6 4 3 1 3 4 5 4 4 4 3 1 1 1 1 2 6 6 5 4 8 8 9 12 13 13 11 12 12 13 13 14 14 14 14 14 14 14 14 14 14 14
30 30 30 31 30 30 30 29 27 27 28 27 26 26 25 25 24 23 21 21 19 16 15 14 12 11 10 11 10 9 7 7 5 5 6 7 7 7 7 6 7 7 6 5 4 2 3 4 5 6 5 5 4 2 1 1 0 1 5 7 5 3 9 10 10 13 16 16 14 12 13 13 13 13 13 13 13 13 13 14 14 14 14 14 13
30 30 30 31 31 31 31 30 29 28 28 28 27 26 26 26 26 24 23 21 18 15 15 14 12 12 12 11 10 8 7 6 4 4 5 6 8 7 7 7 7 7 6 5 3 2 4 4 7 7 6 4 3 2 1 3 4 6 9 7 2 11 13 12 14 17 18 18 16 15 15 14 14 13 13 13 12 11 11 11 11 11 12 13 14
29 29 31 31 31 31 31 31 30 29 29 28 28 26 26 27 26 24 23 21 17 15 16 15 13 13 12 11 9 8 8 7 5 4 5 6 7 8 7 7 8 8 6 4 2 2 5 7 9 8 5 3 4 4 3 6 7 8 8 2 12 15 15 16 18 18 19 19 17 15 15 15 15 14 14 13 13 12 12 12 11 10 10 12 13
29 29 31 32 32 32 32 31 30 30 29 29 28 27 27 27 25 24 22 20 17 16 17 17 15 14 13 11 9 9 9 7 6 5 5 6 7 8 7 7 8 7 5 2 1 3 6 9 10 7 5 5 5 5 6 8 5 2 7 14 17 17 19 19 19 18 18 18 17 15 14 15 15 15 15 14 14 13 13 13 14 14 12 11 12
30 31 31 32 33 32 32 31 31 31 30 29 29 28 27 26 25 23 22 20 18 18 18 18 16 15 14 12 10 10 9 8 7 5 4 5 6 7 8 8 8 6 5 4 3 3 2 4 8 7 4 4 5 7 7 2 8 14 18 20 20 20 21 19 18 18 17 16 16 15 14 15 16 17 16 16 16 16 16 16 17 18 16 14 14
31 33 32 33 34 33 32 32 32 31 30 29 29 28 27 26 25 23 21 20 20 19 19 18 17 16 15 13 11 11 10 9 7 6 5 6 7 8 9 10 10 9 7 6 6 5 7 3 4 4 1 4 7 7 8 16 22 22 22 22 22 22 20 19 18 17 16 16 15 15 15 15 16 17 17 17 19 19 19 19 20 21 20 19 19
33 34 33 34 35 34 34 32 31 31 30 29 29 29 27 25 24 22 20 21 21 20 19 18 17 17 16 14 13 13 12 9 7 9 11 10 11 11 11 12 12 11 10 8 6 5 8 5 1 2 1 5 7 13 20 25 25 24 24 23 22 20 19 18 18 16 16 15 14 14 14 15 16 17 17 18 19 20 20 20 21 22 23 22 20
35 36 35 35 36 36 34 33 32 31 30 28 29 29 27 24 23 21 21 22 22 20 20 18 17 19 17 15 14 13 14 10 8 12 15 14 14 14 14 14 13 12 11 9 7 8 9 4 1 3 1 4 9 20 23 23 25 25 24 23 21 20 19 18 17 16 15 14 14 13 14 13 14 17 18 19 20 20 20 19 20 21 23 23 20
36 38 37 36 38 37 35 35 34 32 30 29 28 29 28 24 22 21 21 22 22 21 20 18 19 20 17 16 15 14 15 12 9 11 14 14 13 13 14 14 12 11 10 9 10 11 10 6 4 4 1 7 17 24 24 24 26 24 23 23 22 21 19 18 16 15 15 14 13 13 13 12 13 15 17 18 18 19 19 19 19 20 21 22 20
36 38 39 38 39 37 36 36 35 33 31 29 28 28 29 25 22 21 21 21 22 22 19 20 21 19 16 16 16 15 14 13 11 11 13 13 12 13 14 13 12 11 10 9 11 11 11 10 8 4 6 18 24 24 24 26 26 26 25 24 23 22 19 18 17 15 15 14 13 13 13 13 14 14 15 16 17 17 19 19 18 18 20 21 21
37 39 40 40 40 38 37 36 35 33 30 30 29 29 29 26 23 22 21 21 23 22 20 22 22 17 14 16 16 16 14 14 13 13 13 12 12 14 14 12 11 11 10 11 11 11 12 11 8 7 14 24 26 25 25 27 27 27 26 24 22 21 19 18 16 15 15 15 15 16 16 16 15 16 16 16 17 17 17 19 19 18 19 20 20
40 41 41 41 40 38 37 35 35 34 30 29 30 29 29 27 24 23 23 23 23 22 22 22 20 16 15 16 17 17 16 16 15 14 13 11 11 13 13 12 11 11 12 12 12 12 12 11 9 11 19 25 26 26 27 27 28 26 24 22 21 18 17 16 14 14 13 14 15 16 18 18 18 18 19 19 20 20 19 19 19 18 18 19 20
42 44 43 42 41 39 36 35 34 32 30 29 29 30 30 28 27 25 25 25 23 23 23 22 18 16 16 18 19 18 18 18 16 15 14 12 11 12 14 13 12 12 13 13 13 12 11 12 12 12 18 24 25 27 28 28 27 25 23 21 19 17 17 16 14 13 12 13 15 15 16 18 19 19 21 23 23 23 22 21 20 19 19 19 19
41 44 44 43 41 39 36 34 33 29 27 29 29 30 30 29 28 26 26 26 23 23 22 20 18 17 18 20 20 19 18 18 16 15 13 13 13 12 14 14 14 13 15 14 13 12 11 12 14 13 15 21 25 27 28 28 26 25 22 20 17 16 15 15 15 14 13 14 15 15 15 16 18 19 20 22 22 23 24 24 22 20 19 19 20
40 41 42 42 40 39 36 34 33 28 24 27 30 31 30 29 28 27 26 26 24 22 21 20 19 18 19 20 20 20 19 17 16 14 12 14 14 13 15 16 16 16 17 16 13 13 12 12 14 15 17 21 24 27 29 28 26 24 22 20 17 16 15 15 15 14 14 15 15 14 13 15 17 18 19 20 20 21 22 23 23 22 20 19 20
39 40 40 40 39 38 36 33 32 29 25 27 31 31 30 30 29 28 28 27 25 22 21 22 21 21 20 20 21 21 19 17 16 14 13 14 14 14 16 16 17 18 18 16 14 14 13 13 13 15 20 23 25 27 28 28 28 26 24 23 19 17 16 16 16 15 14 13 12 12 13 16 18 19 21 21 21 21 20 22 22 22 22 20 21
36 38 39 39 39 39 37 34 31 29 28 30 32 32 32 31 30 30 29 28 26 24 24 24 23 23 22 21 22 21 20 18 17 15 15 15 14 15 16 17 18 18 17 16 14 13 13 14 15 16 19 24 26 26 27 28 27 25 22 22 21 18 15 14 14 14 15 15 15 16 18 20 21 21 22 22 22 21 20 20 20 20 21 21 21
36 38 38 38 39 38 37 35 32 30 30 32 33 33 34 33 31 31 29 27 26 25 26 27 25 24 23 23 23 21 20 19 17 16 16 16 16 16 17 19 19 18 17 16 14 13 13 14 16 18 18 22 24 25 27 22 19 19 18 16 16 16 14 13 14 14 14 16 18 20 21 21 21 21 21 22 23 22 21 19 19 19 20 20 21
36 37 37 37 37 37 36 35 33 31 32 33 34 34 34 32 29 29 28 25 24 25 26 27 27 25 24 23 22 20 19 18 17 17 16 16 16 17 18 20 20 19 18 17 15 14 13 13 15 17 18 21 21 22 23 16 15 21 18 9 5 7 9 10 12 13 13 14 15 17 18 19 20 19 20 21 22 22 19 17 18 20 20 20 20
34 35 37 38 37 36 36 35 34 32 33 35 35 33 32 29 28 28 28 25 23 25 26 27 26 25 24 21 20 19 18 17 16 16 17 17 17 18 19 20 20 19 18 17 16 14 14 13 14 16 17 20 18 17 19 15 17 19 11 5 3 4 3 3 7 9 9 10 11 12 14 17 18 18 18 19 20 20 18 17 18 20 20 20 19
35 37 39 40 38 36 35 35 35 33 34 36 35 33 31 29 28 27 25 23 23 25 26 25 24 23 22 20 19 18 17 16 16 16 17 17 17 18 19 21 20 18 17 17 16 15 14 14 14 15 16 16 15 15 15 15 19 18 9 6 5 2 2 6 8 5 4 7 8 9 11 14 16 16 17 18 18 18 17 17 18 20 20 20 18
35 38 40 40 37 36 34 34 35 34 35 36 35 33 32 32 31 29 27 26 24 24 26 26 24 22 21 20 18 17 16 16 17 17 17 17 18 19 20 20 19 17 16 16 15 14 13 14 14 14 14 14 13 15 15 15 21 17 11 10 5 3 10 12 6 2 2 5 7 8 10 11 14 15 16 17 16 17 17 16 18 19 19 19 17
35 38 39 38 36 36 35 35 36 35 36 36 35 34 33 33 33 31 29 28 25 23 25 26 24 22 21 19 18 16 16 16 16 17 17 18 19 19 19 18 17 17 16 15 15 13 13 13 12 12 14 13 12 15 16 17 20 15 12 12 7 7 19 17 8 5 3 3 5 7 8 8 10 12 14 15 16 17 17 17 18 19 19 18 16
36 38 38 37 37 37 37 36 36 36 35 35 36 35 34 34 33 30 27 26 25 24 24 25 23 22 21 19 18 17 16 16 17 18 19 19 19 18 17 17 17 16 15 15 14 13 13 12 12 12 13 12 11 15 18 17 18 14 10 12 9 13 20 17 15 14 6 2 4 5 5 6 7 8 11 15 16 17 18 18 18 18 18 18 15
37 39 39 38 39 39 37 35 35 36 36 36 36 35 34 34 32 30 27 25 26 25 24 24 23 22 21 19 18 18 18 18 19 19 20 20 19 18 17 16 16 16 15 14 13 13 12 11 12 12 13 13 11 15 18 17 16 15 13 13 14 18 17 12 16 15 8 5 3 3 6 6 4 5 10 16 17 18 19 19 18 18 18 16 16
38 38 38 39 39 37 35 35 36 36 36 35 35 34 33 33 31 30 28 26 26 26 25 24 24 23 22 21 21 21 20 20 19 19 19 19 18 17 17 16 15 14 13 13 13 12 12 11 11 13 14 14 13 15 17 17 16 15 15 18 20 19 14 9 12 13 9 8 5 4 8 7 6 10 14 17 18 19 20 20 18 18 18 16 17
34 35 36 37 38 36 34 35 36 36 35 34 34 33 33 33 32 31 30 29 28 27 26 25 25 25 24 23 23 22 21 21 20 19 18 17 17 16 15 14 13 13 12 11 11 11 12 12 12 13 15 14 14 15 16 16 17 16 16 18 20 18 13 11 15 15 11 9 7 6 8 8 11 16 17 17 18 18 20 20 19 18 17 17 18
Wind_Direction
165 164 163 162 164 158 150 149 149 149 147 144 142 139 134 129 124 121 117 115 113 111 110 110 111 112 113 113 111 111 111 107 106 103 101 102 104 104 103 100 94 90 89 87 85 86 93 99 101 104 106 108 108 106 103 104 103 101 99 98 94 88 84 81 76 69 65 68 82 97 98 101 98 91 93 90 80 81 85 88 83 77 77 77 77
164 164 163 163 165 158 152 150 149 149 147 145 143 141 136 132 128 124 121 118 115 114 115 115 115 116 116 115 113 112 112 110 113 111 106 106 104 102 99 96 94 89 87 88 86 84 87 92 96 101 106 108 105 103 103 103 103 103 101 98 93 88 82 78 75 70 64 61 70 90 100 100 97 91 89 88 84 84 82 82 84 79 76 76 77
160 161 163 163 165 159 153 150 150 149 148 147 144 143 139 135 131 127 124 121 120 119 120 120 119 117 114 111 107 107 106 106 112 114 111 111 107 106 105 100 98 93 90 90 87 86 87 89 93 98 102 103 103 103 104 105 105 104 102 99 94 89 82 76 74 70 66 62 64 76 94 100 96 89 85 82 81 81 76 76 80 78 77 77 79
159 160 162 162 164 159 153 150 150 149 149 148 146 144 141 139 134 131 128 125 124 123 124 120 118 116 112 108 105 103 103 103 108 112 111 111 112 115 115 108 101 96 95 93 91 90 89 90 92 96 100 101 103 105 106 107 108 107 105 102 94 85 77 70 67 65 62 60 62 65 78 94 93 86 81 76 75 77 77 79 76 68 72 76 78
160 159 161 161 164 158 152 151 150 149 148 148 147 146 144 141 136 134 131 128 127 127 128 121 119 116 112 107 103 101 99 101 106 111 111 113 116 119 117 109 103 100 99 97 94 92 90 91 93 95 99 102 104 106 108 109 109 109 106 100 92 82 72 62 53 48 57 64 62 60 61 77 83 82 82 77 73 74 77 79 69 62 70 75 75
162 160 162 162 163 159 155 153 150 150 149 148 148 147 146 143 139 136 133 131 129 130 129 125 122 116 113 107 104 104 99 98 102 106 110 115 117 118 116 110 106 104 102 98 95 92 91 91 93 97 99 103 106 107 109 111 111 108 103 97 89 79 67 57 50 48 79 101 83 66 65 71 74 79 84 79 70 68 72 74 65 62 68 72 72
164 162 163 163 163 161 157 154 153 153 150 150 149 148 147 144 142 138 135 132 131 131 130 127 122 117 114 109 110 109 105 103 103 106 110 115 119 121 119 114 110 106 104 99 96 92 90 92 93 97 99 102 104 107 111 113 111 105 100 92 82 71 66 60 57 68 91 102 96 82 81 75 72 75 79 74 67 66 69 70 68 67 68 69 72
162 163 164 164 163 161 157 155 156 155 153 152 149 149 148 145 144 140 137 134 132 132 131 129 124 122 118 114 115 113 114 113 106 106 107 107 111 119 119 116 114 111 108 104 100 94 93 94 94 95 95 97 99 106 111 112 108 101 94 82 73 69 68 62 59 82 93 93 94 92 87 76 71 72 72 69 67 69 69 68 68 69 67 65 69
160 162 164 163 163 162 158 157 157 156 155 154 150 149 148 147 145 141 139 136 135 135 134 133 130 126 122 119 118 118 121 118 107 105 109 109 112 119 120 119 118 115 114 111 104 99 98 96 94 93 92 92 95 102 106 106 102 95 85 74 69 68 63 52 53 88 98 94 95 93 84 75 72 68 68 67 65 65 61 60 60 62 62 60 62
160 161 164 163 162 163 160 158 157 157 157 155 152 150 149 147 145 143 141 138 138 139 137 138 136 130 127 125 122 123 123 121 116 113 114 110 112 120 122 121 118 115 113 110 103 100 98 95 93 92 91 90 93 99 100 97 91 83 73 64 58 57 52 45 51 86 105 101 100 92 82 76 72 68 67 63 58 54 52 52 53 55 56 55 54
160 161 163 162 161 164 162 159 158 158 157 156 154 151 149 147 146 145 142 141 141 141 142 144 140 134 132 130 125 124 125 121 116 122 124 116 115 119 122 123 118 117 118 113 105 102 97 95 94 92 90 89 92 94 93 87 77 70 61 53 46 45 45 43 51 82 118 108 103 94 85 76 67 64 60 54 49 47 48 48 49 50 49 50 47
159 162 161 161 161 164 162 159 158 157 158 157 154 152 149 148 148 146 144 143 144 145 148 148 143 139 137 135 132 130 132 126 116 124 131 128 124 122 123 125 124 127 127 120 111 104 100 98 96 93 90 88 89 89 84 78 67 59 51 42 35 37 40 41 48 69 126 118 103 98 83 70 62 57 54 48 44 42 43 43 43 43 44 45 42
159 161 160 160 161 163 161 158 158 157 158 156 154 153 150 150 149 147 146 146 147 150 152 151 147 144 140 138 138 139 138 136 126 124 133 133 128 127 130 131 134 135 131 126 118 110 105 102 99 96 94 91 89 86 81 73 64 51 42 35 28 31 36 38 42 56 125 135 103 98 79 63 58 53 50 43 38 35 34 36 36 35 38 40 38
160 161 160 161 160 161 161 160 159 157 158 157 156 154 153 153 150 149 148 148 150 154 155 153 151 147 143 140 139 138 137 140 136 132 138 138 135 137 138 139 142 140 138 135 126 117 112 107 104 101 97 95 90 85 80 71 63 49 37 29 23 26 29 33 37 47 115 143 110 94 74 59 57 51 48 41 35 30 24 25 25 25 28 29 31
163 162 161 161 159 160 162 161 159 157 159 158 158 156 155 154 152 153 149 149 155 158 157 155 155 151 147 143 141 138 135 142 142 141 144 146 146 145 144 148 149 146 145 141 135 127 120 113 107 103 98 93 88 82 74 68 58 44 34 26 24 24 23 28 32 44 101 139 114 84 69 60 57 52 48 43 36 27 18 16 16 15 16 19 24
164 163 161 161 159 160 162 162 161 160 160 160 159 158 157 156 156 156 151 153 158 160 159 159 159 155 151 148 146 142 138 141 142 145 146 149 152 153 154 155 154 151 150 147 145 137 128 119 111 104 97 89 81 71 57 50 40 34 28 24 29 26 26 28 28 54 109 127 106 79 67 59 52 48 48 41 34 23 11 10 13 11 10 12 14
164 164 162 161 160 160 162 163 163 162 162 161 161 159 159 159 159 157 156 159 161 163 163 163 163 158 156 154 151 145 140 142 144 146 146 149 154 160 159 157 157 156 155 153 152 145 136 126 115 103 93 80 64 49 36 33 28 29 28 30 37 32 35 35 33 69 114 118 98 74 59 50 46 44 42 33 26 17 4 358 3 6 10 11 5
164 167 165 163 161 161 164 164 165 165 163 163 162 162 162 162 161 160 161 163 164 165 165 165 165 164 162 159 157 151 148 149 149 151 151 152 154 161 160 160 162 161 161 160 159 154 147 134 115 99 81 57 43 34 30 30 27 31 30 39 46 39 43 46 53 79 109 112 88 64 52 45 44 42 36 27 22 16 3 358 2 8 9 1 351
163 167 167 165 163 163 165 165 168 167 165 164 163 163 164 165 163 163 165 167 168 168 168 169 168 171 169 162 160 158 161 164 160 158 156 155 155 160 162 164 166 167 167 165 165 163 157 146 126 93 43 25 26 26 37 32 32 35 33 51 52 44 49 57 73 90 105 104 79 59 49 41 40 38 32 27 25 20 13 11 13 14 7 356 352
161 165 166 166 165 165 165 167 169 169 169 165 162 163 166 166 165 167 169 170 172 173 173 171 172 175 172 166 166 166 170 175 171 167 159 156 159 164 168 170 171 172 172 172 171 170 172 185 246 317 356 5 16 31 46 31 37 36 40 62 49 38 52 63 82 94 95 86 66 53 46 43 43 40 36 34 32 28 25 24 21 17 12 8 7
160 165 166 166 166 167 167 169 170 171 171 165 163 165 167 167 168 170 172 174 175 177 179 176 175 177 174 175 178 177 178 178 172 169 163 157 160 169 176 179 179 180 179 180 180 184 203 233 270 312 359 7 18 34 35 29 40 37 58 63 29 29 44 68 101 93 80 72 59 54 52 51 50 47 44 41 39 36 35 33 29 27 24 22 20
161 165 167 168 168 169 170 170 170 173 171 165 166 167 169 170 170 173 175 178 177 178 184 183 181 179 181 185 187 183 179 178 175 169 166 161 161 167 177 185 188 190 192 193 196 204 215 220 264 356 14 12 14 21 19 37 55 62 72 25 4 27 33 85 120 95 79 68 60 59 58 57 55 54 51 47 45 44 44 41 38 38 35 33 34
163 166 168 171 171 171 172 171 171 173 171 168 168 169 171 173 174 176 179 180 180 184 188 186 185 186 190 189 177 167 160 159 162 164 165 165 161 157 166 178 182 184 187 189 191 190 186 110 20 9 12 6 1 5 3 54 115 109 55 338 351 14 32 112 123 96 79 67 63 62 62 63 60 57 56 54 52 51 51 49 47 48 45 43 45
165 167 168 173 174 173 173 173 173 173 172 170 170 172 175 177 178 180 183 183 185 188 187 185 186 190 192 181 164 153 144 133 139 155 165 171 164 157 158 160 159 157 157 159 154 138 72 17 355 350 355 348 341 343 312 233 150 123 336 333 346 3 85 123 115 88 78 71 69 67 67 67 63 59 57 57 55 56 57 55 52 53 51 47 48
164 164 168 174 176 175 175 175 175 175 174 173 173 175 178 179 181 184 186 187 189 186 182 183 185 187 181 169 160 153 147 137 142 156 161 172 171 162 157 149 143 136 134 130 113 79 23 3 344 330 325 328 334 341 291 249 228 346 329 326 336 93 123 121 102 87 82 79 75 72 73 71 66 62 57 56 55 55 56 55 52 52 53 47 43
163 164 170 174 177 178 177 176 177 177 178 177 176 178 180 182 185 186 188 191 191 182 178 180 180 177 168 163 161 158 157 151 160 167 157 171 174 164 156 147 137 128 126 116 100 30 355 345 338 330 319 321 322 323 298 291 309 318 314 314 117 130 126 114 101 92 87 83 76 73 72 69 68 65 61 57 53 52 49 49 48 46 47 43 41
164 167 171 173 177 179 178 178 178 178 181 180 180 181 183 186 187 187 190 191 188 183 180 178 175 169 164 165 166 164 163 159 163 168 161 166 166 160 153 147 138 132 130 117 95 356 338 331 336 337 331 329 314 303 293 307 317 309 296 173 136 132 121 110 102 95 89 83 76 72 69 67 64 61 58 54 50 49 46 46 46 44 43 41 42
165 168 172 173 177 180 179 179 180 180 183 184 184 186 188 189 188 189 192 190 185 185 180 176 174 167 163 167 173 172 167 163 157 156 163 158 152 152 150 145 141 141 147 155 222 310 308 317 329 333 326 317 312 312 307 311 313 223 165 142 135 126 114 106 100 94 89 84 78 69 64 61 57 56 54 51 49 48 49 50 50 53 55 46 40
166 170 172 173 178 180 179 180 182 183 186 186 187 190 191 191 190 192 193 189 187 183 177 177 176 172 170 172 182 185 180 181 171 161 166 157 147 153 160 159 159 166 181 205 222 213 226 296 308 311 324 330 351 359 336 310 144 143 139 134 128 118 110 102 97 94 88 84 79 68 60 58 55 56 55 55 53 51 55 57 57 59 59 51 43
169 171 172 174 178 179 179 182 184 185 187 188 188 191 193 193 193 194 192 188 187 183 180 181 182 182 179 178 189 194 192 193 193 193 192 185 181 178 182 184 183 187 192 197 197 160 130 133 279 291 351 17 30 55 103 127 129 128 127 124 120 113 105 100 96 91 87 83 79 69 60 56 55 55 57 60 58 57 60 62 63 61 59 56 49
170 171 174 174 178 179 180 183 184 185 188 189 190 191 192 193 194 195 192 187 186 185 186 189 193 191 185 184 191 198 197 200 218 219 210 211 212 205 199 198 197 200 199 185 169 141 124 119 288 242 147 17 56 112 125 122 120 120 120 118 115 110 104 100 96 90 86 81 75 68 61 57 56 56 59 64 63 62 64 65 65 61 60 59 54
171 172 174 174 177 180 182 185 185 187 188 189 191 191 192 192 192 193 190 186 185 189 192 199 202 192 188 193 194 196 201 211 230 216 210 214 219 218 212 211 211 208 204 181 148 137 134 122 287 209 208 21 103 127 126 119 118 119 118 115 113 110 105 102 96 90 86 81 73 64 59 61 66 66 64 67 66 63 63 65 65 62 59 57 57
172 173 174 174 177 181 184 186 186 188 189 190 192 192 192 191 190 191 188 185 187 192 197 203 200 192 196 201 195 195 201 214 221 205 205 207 208 210 209 211 210 206 205 181 152 144 146 155 185 201 134 109 126 128 123 121 122 121 119 116 113 109 106 102 97 92 88 82 73 62 59 66 75 77 73 70 66 63 64 64 65 63 59 55 55
169 171 172 174 177 181 184 186 186 188 191 193 193 193 191 189 190 191 188 186 189 195 201 203 198 195 202 200 193 194 200 211 211 198 199 199 195 195 198 201 200 201 197 173 152 146 154 162 163 173 130 126 128 128 125 122 121 121 118 116 112 109 107 103 98 95 91 84 74 66 69 76 81 83 81 76 66 65 66 64 65 64 59 54 54
166 168 171 173 176 180 183 184 184 186 191 195 195 193 191 190 190 191 190 191 194 200 204 202 198 197 197 193 189 194 204 212 209 204 202 200 202 202 200 198 196 197 187 167 154 148 158 159 143 137 135 131 129 129 128 124 122 120 118 115 113 110 106 104 101 97 91 85 77 72 73 78 81 81 82 80 72 69 67 64 64 63 60 53 53
165 166 168 171 174 178 182 183 184 185 189 195 196 193 191 191 190 190 194 197 200 204 204 200 197 196 193 189 190 198 209 211 209 210 210 206 208 211 207 200 192 191 183 168 154 150 158 155 135 133 137 136 132 128 127 126 123 120 119 117 114 112 108 106 104 101 95 85 81 77 73 73 75 77 78 78 77 73 68 66 64 63 62 54 52
166 166 166 169 172 176 181 183 185 187 190 194 195 193 191 191 189 190 196 199 201 200 198 197 197 197 196 193 196 205 209 209 209 213 218 215 213 213 207 198 190 185 178 167 156 154 159 151 135 131 138 139 135 130 126 124 121 118 116 114 111 109 107 108 107 105 102 93 89 84 76 74 72 73 76 75 73 71 67 66 65 65 63 56 52
166 167 167 169 172 175 179 184 185 185 189 192 193 192 190 190 190 192 197 198 197 195 194 196 198 196 195 196 201 206 207 209 212 214 218 218 215 211 202 191 181 175 169 164 159 158 159 154 139 127 137 144 139 133 128 124 121 116 111 108 106 105 103 107 111 110 104 99 96 90 81 78 72 71 76 75 71 69 66 63 64 66 63 57 52
166 167 168 168 170 173 177 184 185 181 183 188 189 187 186 187 189 192 196 197 196 196 196 197 198 196 196 200 204 205 208 212 214 215 217 216 211 204 196 185 175 169 165 163 162 161 159 159 146 131 133 142 141 136 130 124 118 112 107 103 99 99 101 108 111 109 106 103 103 97 88 86 78 73 76 77 75 72 67 62 60 61 60 56 51
167 167 168 169 169 171 176 182 183 181 180 182 183 182 180 183 187 190 193 195 194 195 196 197 198 200 202 204 204 205 210 213 213 217 219 213 206 197 191 180 172 168 165 164 165 163 161 160 153 141 135 136 138 137 135 128 114 104 102 100 96 95 99 105 106 104 104 104 107 103 96 92 86 81 79 77 76 71 67 63 59 57 55 53 49
168 168 169 171 171 173 177 180 181 180 178 178 180 180 179 182 185 188 191 192 192 192 194 196 200 204 206 205 203 206 210 211 213 215 214 209 200 195 190 178 171 168 166 167 167 164 162 160 153 146 140 139 138 138 142 136 117 103 97 94 93 92 92 97 100 101 99 100 103 100 96 93 86 82 79 75 72 68 65 62 60 59 55 52 47
168 171 171 172 173 176 180 181 180 179 178 180 181 182 183 183 185 186 188 189 192 195 196 197 201 204 204 203 203 206 210 211 212 211 209 206 199 194 188 178 171 168 168 168 170 169 163 163 157 149 145 145 145 146 148 142 127 122 115 100 89 85 85 91 100 104 101 101 101 97 93 90 85 81 77 73 69 65 63 63 65 62 54 50 45
169 171 172 172 175 179 181 181 181 180 180 182 183 185 187 187 187 187 187 187 190 198 200 197 198 198 198 199 202 206 210 210 210 210 207 202 198 192 184 177 173 172 172 169 173 177 172 172 169 162 156 150 150 157 159 156 143 135 124 114 111 90 80 85 100 109 112 110 104 98 93 88 85 81 77 74 69 66 65 69 68 57 49 48 45
168 170 172 174 177 180 182 180 180 181 182 183 185 187 187 187 190 190 188 188 189 193 195 192 190 191 191 196 202 208 209 208 208 206 201 197 195 190 181 177 176 177 178 176 179 183 183 183 180 177 172 159 154 165 177 180 164 149 127 99 131 117 87 110 116 110 117 118 106 100 94 89 87 82 79 73 69 70 71 72 62 48 45 47 45
171 173 173 175 178 181 182 180 179 181 183 185 187 186 184 183 185 184 184 185 184 184 182 179 181 185 191 196 203 208 208 208 207 201 194 192 190 185 180 179 179 179 182 182 182 186 190 192 187 185 184 176 167 166 178 191 183 174 163 135 123 102 163 163 142 120 129 128 112 107 99 92 89 85 81 73 70 75 74 68 55 45 46 45 45
174 175 175 177 178 179 181 180 179 181 184 186 187 186 184 183 183 179 178 178 177 177 177 176 179 185 193 199 202 205 204 203 202 195 190 187 184 181 180 181 181 179 183 185 184 186 191 194 191 187 187 189 184 169 164 179 186 188 190 178 174 166 160 159 147 119 153 145 123 115 111 103 93 87 82 74 76 81 74 64 53 50 49 43 46
176 175 175 177 177 177 181 181 181 183 185 187 188 188 186 186 187 185 183 180 174 175 179 181 184 188 194 198 197 195 195 196 192 186 182 180 180 181 183 184 182 178 182 185 184 187 190 190 189 186 185 187 188 176 161 165 179 191 208 204 222 188 164 162 160 147 144 167 160 139 127 115 102 91 82 81 85 81 73 66 59 57 49 41 46
175 173 174 176 176 178 182 183 183 184 186 188 189 190 189 188 189 187 185 182 178 177 180 182 185 188 189 190 188 184 186 188 182 177 175 176 180 183 185 185 182 179 183 187 187 189 191 189 184 181 181 180 186 181 166 163 172 178 190 197 205 183 169 167 165 153 132 144 187 186 159 134 119 99 85 90 88 76 70 69 64 57 46 41 48
174 173 174 175 176 179 182 182 183 185 187 190 190 191 192 191 190 187 183 181 182 182 180 180 181 183 182 180 178 176 176 177 175 176 176 179 184 186 187 188 187 185 187 190 191 191 193 192 185 181 177 170 174 181 172 167 170 167 165 164 159 160 161 164 161 148 129 136 167 218 185 158 133 100 102 102 88 73 70 68 66 57 46 46 50
174 173 173 174 176 179 181 181 184 187 189 191 191 192 194 194 191 187 183 180 181 180 177 176 177 177 175 172 171 171 171 172 175 180 181 184 189 189 190 193 194 195 196 197 197 193 193 190 183 180 178 171 169 176 174 169 167 161 159 156 150 149 150 154 159 149 137 138 142 175 180 170 124 103 112 107 88 75 68 64 63 55 48 50 48
172 171 171 173 176 178 180 182 185 188 189 191 193 193 194 195 193 189 185 182 180 177 173 172 172 172 171 168 169 171 173 176 179 182 183 186 189 189 192 195 198 201 200 201 200 196 190 183 176 173 174 174 171 172 169 164 163 157 156 157 155 156 158 162 167 163 149 136 134 157 174 155 115 112 116 104 87 77 65 59 58 52 50 50 45